DW2789 Weather Reports


Display with metric or nautical units.
time (UTC)temp
F
wind
direction
speed
MPH
gust
MPH
rain 1hr
in
rain 24hr
in
rain mn
in
humidity
%
barometer
mb
20260504043941 61 78 0.0 5.0 0.00 0.00 0.00 58 1008.7
20260504042927 61 78 0.0 0.0 0.00 0.00 0.00 58 1008.8
20260504041934 62 78 0.0 1.0 0.00 0.00 0.00 59 1008.7
20260504040937 62 78 0.0 1.0 0.00 0.00 0.00 57 1008.7
20260504035939 63 78 0.0 0.0 0.00 0.00 0.00 58 1008.6
20260504034938 64 78 0.0 0.0 0.00 0.00 0.00 57 1008.5
20260504033940 65 78 0.0 0.0 0.00 0.00 0.00 55 1008.4
20260504032940 67 78 0.0 0.0 0.00 0.00 0.00 53 1008.4
20260504032001 68 78 0.0 0.0 0.00 0.00 0.00 51 1008.3
20260504030937 72 78 0.0 0.0 0.00 0.00 0.00 49 1008.2
20260504025939 74 78 0.0 0.0 0.00 0.00 0.00 49 1008.1
20260504025009 76 78 0.0 0.0 0.00 0.00 0.00 45 1008.1
20260504022942 81 78 0.0 0.0 0.00 0.00 0.00 44 1008.2
20260504021946 83 78 0.0 0.0 0.00 0.00 0.00 41 1008.2
20260504020928 85 78 0.0 0.0 0.00 0.00 0.00 42 1008.2
20260504015935 85 78 0.0 0.0 0.00 0.00 0.00 38 1008.3
20260504014937 85 78 0.0 0.0 0.00 0.00 0.00 41 1008.4
20260504014002 86 78 0.0 0.0 0.00 0.00 0.00 39 1008.5
20260504012946 86 78 0.0 0.0 0.00 0.00 0.00 35 1008.6
20260504011952 85 78 0.0 0.0 0.00 0.00 0.00 37 1008.7
20260504010931 85 78 0.0 0.0 0.00 0.00 0.00 37 1008.8
20260504005931 84 78 0.0 0.0 0.00 0.00 0.00 34 1008.9
20260504004950 84 78 0.0 0.0 0.00 0.00 0.00 34 1009.0
20260504003947 84 78 0.0 0.0 0.00 0.00 0.00 32 1009.2
20260504002931 84 78 0.0 4.0 0.00 0.00 0.00 35 1009.2
20260504001930 83 78 0.0 0.0 0.00 0.00 0.00 35 1009.3
20260504000934 83 78 0.0 5.0 0.00 0.00 0.00 35 1009.3
20260503235936 84 78 0.0 9.0 0.00 0.00 0.00 37 1009.5
20260503234926 85 78 0.0 3.0 0.00 0.00 0.00 39 1009.5
20260503233952 84 78 0.0 0.0 0.00 0.00 0.00 37 1009.6
20260503232934 84 78 0.0 7.0 0.00 0.00 0.00 38 1009.7
20260503231939 84 78 0.0 0.0 0.00 0.00 0.00 40 1009.8
20260503230946 84 78 0.0 9.0 0.00 0.00 0.00 38 1009.9
20260503225928 84 78 0.0 5.0 0.00 0.00 0.00 37 1010.0
20260503224933 84 78 0.0 5.0 0.00 0.00 0.00 37 1010.2
20260503223936 83 78 0.0 0.0 0.00 0.00 0.00 40 1010.3
20260503222943 82 78 0.0 0.0 0.00 0.00 0.00 38 1010.5
20260503221925 81 78 1.0 5.0 0.00 0.00 0.00 41 1010.6
20260503220931 82 78 0.0 5.0 0.00 0.00 0.00 47 1010.7
20260503215952 82 78 2.0 8.0 0.00 0.00 0.00 41 1011.0
20260503214952 82 78 0.0 8.0 0.00 0.00 0.00 41 1011.0
20260503214011 81 78 0.0 5.0 0.00 0.00 0.00 45 1011.2
20260503212938 81 78 0.0 10.0 0.00 0.00 0.00 46 1011.3
20260503211936 80 78 0.0 10.0 0.00 0.00 0.00 48 1011.4
20260503210938 79 78 0.0 5.0 0.00 0.00 0.00 43 1011.5
20260503205932 79 78 0.0 0.0 0.00 0.00 0.00 46 1011.7
20260503204943 78 78 0.0 2.0 0.00 0.00 0.00 50 1011.6
20260503203926 77 78 0.0 0.0 0.00 0.00 0.00 50 1011.8
20260503202932 77 78 1.0 4.0 0.00 0.00 0.00 51 1011.9
20260503201934 76 78 0.0 5.0 0.00 0.00 0.00 46 1012.0
20260503201004 76 78 1.0 7.0 0.00 0.00 0.00 50 1012.1
20260503195928 75 78 3.0 8.0 0.00 0.00 0.00 48 1012.2
20260503194933 75 78 4.0 8.0 0.00 0.00 0.00 52 1012.3
20260503193935 75 78 1.0 8.0 0.00 0.00 0.00 50 1012.5
20260503192940 75 78 1.0 9.0 0.00 0.00 0.00 51 1012.6
20260503191944 74 78 2.0 10.0 0.00 0.00 0.00 50 1012.6
20260503190930 75 78 6.0 9.0 0.00 0.00 0.00 51 1012.8
20260503184958 74 78 1.0 5.0 0.00 0.00 0.00 51 1012.8
20260503183936 73 78 0.0 0.0 0.00 0.00 0.00 47 1012.8
20260503182937 72 78 0.0 0.0 0.00 0.00 0.00 50 1012.9
20260503181957 71 78 0.0 0.0 0.00 0.00 0.00 51 1013.0
20260503180947 71 78 0.0 3.0 0.00 0.00 0.00 57 1013.1
20260503180004 71 78 2.0 4.0 0.00 0.00 0.00 55 1013.2
20260503174948 70 78 0.0 5.0 0.00 0.00 0.00 55 1013.3
20260503173937 70 78 0.0 0.0 0.00 0.00 0.00 59 1013.4
20260503172939 70 78 0.0 0.0 0.00 0.00 0.00 56 1013.5
20260503171944 69 78 0.0 0.0 0.00 0.00 0.00 54 1013.5
20260503170946 68 78 0.0 5.0 0.00 0.00 0.00 54 1013.5
20260503150938 62 78 0.0 0.0 0.00 0.00 0.00 56 1013.1
20260503130933 56 78 0.0 3.0 0.00 0.00 0.00 60 1013.1
20260503080943 61 30 0.0 6.0 0.00 0.00 0.00 50 1012.7
20260503072937 61 30 0.0 6.0 0.00 0.00 0.00 49 1012.5
20260503071940 62 30 0.0 7.0 0.00 0.00 0.00 48 1012.4
20260503070927 61 30 2.0 7.0 0.00 0.00 0.00 50 1012.4
20260503054933 61 24 0.0 0.0 0.00 0.00 0.00 54 1012.1
20260503053937 61 24 0.0 0.0 0.00 0.00 0.00 54 1012.1
20260503052940 61 24 0.0 0.0 0.00 0.00 0.00 56 1012.0
20260503051945 61 24 0.0 0.0 0.00 0.00 0.00 58 1012.0
20260503050947 61 24 0.0 0.0 0.00 0.00 0.00 60 1011.9
20260503045933 61 24 0.0 0.0 0.00 0.00 0.00 60 1011.9
20260503044936 62 24 0.0 0.0 0.00 0.00 0.00 61 1011.9